[[{"header":{"parameterUnit":"m.s-1","parameterCategory":1,"la1":30.2991,"la2":30.254,"lo1":-89.0895,"lo2":-89.0444,"dy":0.0017,"dx":0.0017,"nx":28,"ny":28,"refTime":"2026-03-04T09:00:00:Z","depth":0,"parameterNumber":2,"parameterNumberName":"U-component_of_WINDS"},"data":[0,0,0,0,0,0,0,0,0,0,0,0,0,0,0,0,0,0,0,0,0,0,0,0,0,0,0,0,0,0,0,0,0,0,0,0,0,0,0,0,0,0,0,0,0,0,0,0,0,0,0,0,0,0,0,0,0,0,-2.5544,-2.5543,0,-2.5508,-2.5508,-2.5507,-2.544,-2.5438,-2.5437,-2.5436,-2.5402,-2.5403,-2.5403,0,0,0,0,0,0,0,0,0,0,0,0,0,-2.5558,-2.5558,-2.5544,-2.5543,-2.5543,-2.5508,-2.5508,-2.5507,-2.544,-2.5438,-2.5437,-2.5435,-2.5402,-2.5403,-2.5403,0,0,0,0,0,0,0,0,0,0,0,0,0,-2.554,-2.5558,-2.5544,-2.5505,-2.5501,-2.5508,-2.5508,-2.5507,-2.544,-2.5438,-2.5436,-2.5435,-2.5402,-2.5403,-2.5403,-2.5446,0,0,-2.5405,-2.5405,0,0,0,0,0,0,0,0,-2.5541,-2.554,-2.5511,-2.5508,-2.5503,-2.5476,-2.55,-2.5487,-2.5441,-2.5464,-2.5436,-2.5434,-2.5429,-2.5427,-2.5425,-2.5444,-2.5443,-2.5405,-2.5405,-2.5405,-2.5405,0,0,0,0,0,0,0,-2.5543,-2.5541,-2.553,-2.5511,-2.5506,-2.5491,-2.5486,-2.5498,-2.5458,-2.5461,-2.5456,-2.5453,-2.5426,-2.5424,-2.5423,-2.5442,-2.5405,-2.5405,-2.5406,-2.5406,-2.5498,-2.55,0,0,0,0,0,0,-2.5549,-2.5543,-2.5531,-2.5529,-2.5518,-2.5492,-2.5487,-2.5487,-2.5457,-2.5451,-2.5455,-2.545,-2.5425,-2.5423,-2.5422,-2.5471,-2.5405,-2.5406,-2.5406,-2.5496,-2.5498,-2.5501,0,0,0,0,0,0,-2.555,-2.5549,-2.5532,-2.5534,-2.5531,-2.5494,-2.5495,-2.5487,-2.5485,-2.5452,-2.5445,-2.546,-2.5423,-2.5421,-2.5441,-2.5469,-2.5406,-2.5406,-2.5493,-2.5497,-2.55,-2.5569,0,0,0,0,0,0,-2.555,-2.5549,-2.5564,-2.5535,-2.5531,-2.555,-2.5496,-2.5488,-2.5486,-2.5479,-2.5455,-2.5449,-2.5421,-2.544,-2.5441,-2.5468,-2.5407,-2.5491,-2.5495,-2.5499,-2.5564,-2.5574,-2.5583,0,0,0,0,0,-2.5551,-2.5585,-2.5565,-2.5564,-2.5548,-2.5552,-2.555,-2.5516,-2.5489,-2.5504,-2.5483,-2.545,-2.5466,-2.5443,-2.5443,-2.5471,-2.5489,-2.5494,-2.5498,-2.556,-2.5572,-2.5583,0,0,0,0,0,0,-2.5618,-2.558,-2.5558,-2.5583,-2.5571,-2.5541,-2.5558,-2.553,-2.5526,-2.552,-2.548,-2.5475,-2.55,-2.5488,-2.5463,-2.5512,-2.5472,-2.5478,-2.5519,-2.553,-2.554,-2.5542,-2.5407,0,0,0,0,0,-2.5636,-2.5641,-2.5608,-2.5634,-2.5629,-2.5595,-2.5595,-2.5571,-2.5557,-2.5552,-2.5532,-2.5522,-2.5525,-2.5527,-2.5528,-2.5563,-2.5557,-2.5582,-2.5592,-2.56,-2.5604,-2.5624,-2.5635,-2.5517,-2.5517,-2.5517,0,0,-2.5673,-2.5653,-2.5658,-2.5647,-2.5635,-2.5642,-2.5591,-2.5601,-2.5606,-2.5554,-2.557,-2.5557,-2.5542,-2.557,-2.5581,-2.556,-2.5636,-2.5606,-2.5612,-2.5613,-2.563,-2.5641,-2.5651,-2.552,-2.5519,-2.5519,0,0,-2.5743,-2.5728,-2.5748,-2.5738,-2.572,-2.5698,-2.5703,-2.5677,-2.5666,-2.5682,-2.5643,-2.5651,-2.5656,-2.5647,-2.5644,-2.5715,-2.5685,-2.5716,-2.5765,-2.5785,-2.5794,-2.5802,-2.5828,-2.5837,-2.5721,-2.5722,-2.5722,0,-2.5791,-2.5799,-2.5762,-2.5775,-2.5772,-2.5725,-2.5746,-2.5738,-2.5722,-2.5722,-2.5699,-2.5705,-2.5692,-2.5718,-2.5736,-2.5735,-2.574,-2.5718,-2.5795,-2.5803,-2.581,-2.5834,-2.5844,-2.5726,-2.5725,-2.5725,-2.5724,0,-2.5859,-2.5866,-2.5885,-2.587,-2.5869,-2.5886,-2.5854,-2.5858,-2.5835,-2.5816,-2.5834,-2.5818,-2.5815,-2.5819,-2.5796,-2.5843,-2.5831,-2.5802,-2.5761,-2.5826,-2.5848,-2.5857,-2.5731,-2.573,-2.5729,-2.5728,0,0,-2.5968,-2.5935,-2.5942,-2.5936,-2.5915,-2.592,-2.5936,-2.5933,-2.5938,-2.593,-2.5943,-2.595,-2.5924,-2.592,-2.5896,-2.5913,-2.5972,-2.5883,-2.5882,-2.59,-2.6024,-2.6045,-2.6056,-2.5953,-2.5954,-2.5956,-2.6025,0,-2.6033,-2.6057,-2.6026,-2.6058,-2.6064,-2.6021,-2.6036,-2.6026,-2.6009,-2.6014,-2.5996,-2.6002,-2.5967,-2.5965,-2.598,-2.5962,-2.5996,-2.5956,-2.5966,-2.5967,-2.597,-2.6067,-2.6089,-2.6155,-2.6034,-2.6035,-2.6036,0,-2.6112,-2.6107,-2.6139,-2.6118,-2.6119,-2.6133,-2.6128,-2.6133,-2.6122,-2.6109,-2.6106,-2.6078,-2.6094,-2.6056,-2.6078,-2.6052,-2.6055,-2.6047,-2.6049,-2.6047,-2.6004,-2.6069,-2.6175,-2.6185,-2.6049,-2.6048,-2.6047,0,-2.6188,-2.619,-2.621,-2.6206,-2.6181,-2.6192,-2.6183,-2.6169,-2.617,-2.6167,-2.6167,-2.6167,-2.6167,-2.6168,-2.6141,-2.6115,-2.6168,-2.6127,-2.6159,-2.616,-2.6171,-2.617,-2.6279,-2.6174,-2.6174,-2.6174,-2.6173,0,-2.6264,-2.6285,-2.6244,-2.6256,-2.628,-2.6245,-2.627,-2.6257,-2.6246,-2.6256,-2.622,-2.623,-2.6195,-2.6202,-2.6182,-2.6205,-2.6205,-2.6196,-2.619,-2.6199,-2.62,-2.6199,-2.6193,-2.6176,-2.6176,-2.6175,-2.6175,0,-2.6352,-2.6326,-2.6344,-2.632,-2.6315,-2.6333,-2.6314,-2.6325,-2.6307,-2.632,-2.6322,-2.6294,-2.6302,-2.6276,-2.6279,-2.6265,-2.6299,-2.6286,-2.6302,-2.6298,-2.6331,-2.6329,-2.6443,-2.6456,-2.6343,-2.6345,-2.6345,0,-2.6402,-2.6417,-2.6395,-2.6399,-2.6391,-2.6398,-2.6399,-2.6367,-2.637,-2.6359,-2.6372,-2.6377,-2.6378,-2.6392,-2.6373,-2.6376,-2.6363,-2.6403,-2.6363,-2.6372,-2.6363,-2.6363,-2.6364,-2.6411,-2.6412,-2.6413,-2.6414,0,-2.6492,-2.6479,-2.6481,-2.6479,-2.6481,-2.6478,-2.6473,-2.6479,-2.6445,-2.645,-2.6457,-2.6458,-2.6462,-2.6467,-2.6466,-2.6459,-2.6432,-2.6427,-2.6435,-2.6443,-2.6452,-2.6448,-2.6324,-2.6424,-2.6423,-2.6422,-2.6422,-2.6421,-2.6563,-2.6575,-2.6562,-2.6566,-2.6559,-2.6556,-2.6565,-2.6549,-2.6554,-2.6554,-2.6535,-2.6546,-2.6537,-2.6533,-2.6529,-2.6538,-2.652,-2.653,-2.6533,-2.6536,-2.6542,-2.6451,-2.6538,-2.6538,-2.6537,-2.6537,-2.6537,0,-2.6651,-2.6641,-2.6646,-2.664,-2.6644,-2.6618,-2.6612,-2.6617,-2.6627,-2.662,-2.6623,-2.6632,-2.6637,-2.662,-2.6624,-2.6635,-2.6622,-2.6637,-2.6635,-2.6634,-2.6558,-2.6551,-2.6647,-2.6647,-2.6646,-2.6646,-2.6646,-2.6646,-2.6698,-2.6718,-2.6703,-2.6721,-2.6711,-2.672,-2.6719,-2.6717,-2.6711,-2.6723,-2.6727,-2.6716,-2.6706,-2.6709,-2.6713,-2.6708,-2.6712,-2.673,-2.6721,-2.665,-2.6639,-2.6629,-2.6622,-2.6731,-2.6731,-2.6796,-2.6797,-2.6797]},{"header":{"parameterUnit":"m.s-1","parameterCategory":1,"la1":30.2991,"la2":30.254,"lo1":-89.0895,"lo2":-89.0444,"dy":0.0017,"dx":0.0017,"nx":28,"ny":28,"refTime":"2026-03-04T09:00:00:Z","depth":0,"parameterNumber":3,"parameterNumberName":"V-component_of_WINDS"},"data":[0,0,0,0,0,0,0,0,0,0,0,0,0,0,0,0,0,0,0,0,0,0,0,0,0,0,0,0,0,0,0,0,0,0,0,0,0,0,0,0,0,0,0,0,0,0,0,0,0,0,0,0,0,0,0,0,0,0,0.4027,0.4027,0,0.4061,0.4061,0.4062,0.4127,0.4129,0.413,0.4131,0.4165,0.4164,0.4164,0,0,0,0,0,0,0,0,0,0,0,0,0,0.4019,0.4019,0.4027,0.4027,0.4028,0.4061,0.4061,0.4062,0.4127,0.4129,0.413,0.4132,0.4165,0.4164,0.4164,0,0,0,0,0,0,0,0,0,0,0,0,0,0.4035,0.4019,0.4027,0.4064,0.4068,0.4061,0.4061,0.4062,0.4127,0.4129,0.4131,0.4133,0.4165,0.4164,0.4164,0.4122,0,0,0.4162,0.4162,0,0,0,0,0,0,0,0,0.4034,0.4035,0.4059,0.4062,0.4066,0.4092,0.4071,0.4082,0.4126,0.4104,0.4131,0.4133,0.4139,0.414,0.4143,0.4123,0.4125,0.4162,0.4162,0.4162,0.4162,0,0,0,0,0,0,0,0.4033,0.4034,0.404,0.4059,0.4063,0.408,0.4084,0.4073,0.411,0.4107,0.4111,0.4115,0.4141,0.4143,0.4144,0.4125,0.4162,0.4162,0.4162,0.4161,0.4076,0.4074,0,0,0,0,0,0,0.4026,0.4032,0.4039,0.4041,0.4054,0.4078,0.4083,0.4082,0.4111,0.4117,0.4113,0.4118,0.4143,0.4144,0.4145,0.4099,0.4162,0.4161,0.4161,0.4078,0.4075,0.4073,0,0,0,0,0,0,0.4026,0.4026,0.4038,0.4038,0.4041,0.4076,0.4074,0.4081,0.4083,0.4115,0.4122,0.4108,0.4144,0.4146,0.4128,0.4101,0.4161,0.4161,0.408,0.4077,0.4074,0.4006,0,0,0,0,0,0,0.4025,0.4026,0.401,0.4037,0.4041,0.402,0.4072,0.408,0.4082,0.4089,0.4112,0.4118,0.4146,0.4128,0.4127,0.4102,0.416,0.4083,0.4079,0.4075,0.4011,0.4001,0.3993,0,0,0,0,0,0.4025,0.3989,0.4009,0.4009,0.4022,0.4018,0.402,0.4053,0.408,0.4064,0.4086,0.4117,0.4104,0.4126,0.4125,0.4099,0.4084,0.408,0.4075,0.4015,0.4003,0.3993,0,0,0,0,0,0,0.3956,0.3993,0.4015,0.3987,0.3999,0.4029,0.4011,0.4039,0.4043,0.4049,0.4089,0.4094,0.4071,0.4083,0.4106,0.4061,0.41,0.4095,0.4054,0.4043,0.4034,0.4032,0.416,0,0,0,0,0,0.3938,0.3932,0.3964,0.3936,0.3941,0.3975,0.3974,0.3999,0.4012,0.4017,0.4037,0.4049,0.4048,0.4046,0.4047,0.4013,0.402,0.3995,0.3986,0.3979,0.3974,0.3959,0.3949,0.4058,0.4058,0.4059,0,0,0.39,0.3919,0.3913,0.3923,0.3935,0.3928,0.3978,0.3968,0.3964,0.4016,0.4,0.4015,0.4031,0.4006,0.3995,0.4015,0.3946,0.3973,0.3967,0.3966,0.3953,0.3943,0.3934,0.4055,0.4056,0.4056,0,0,0.3827,0.3841,0.382,0.3831,0.3849,0.3872,0.3867,0.3893,0.3905,0.389,0.393,0.3925,0.3921,0.3932,0.3936,0.3869,0.3899,0.3868,0.3821,0.3806,0.3797,0.379,0.3767,0.3758,0.3864,0.3863,0.3863,0,0.3777,0.3769,0.3805,0.3793,0.3797,0.3845,0.3825,0.3834,0.385,0.3852,0.3874,0.3872,0.3886,0.3865,0.3848,0.385,0.3846,0.3866,0.3796,0.3789,0.3782,0.3761,0.3752,0.386,0.386,0.386,0.3861,0,0.3707,0.3701,0.3682,0.3698,0.3699,0.3683,0.3717,0.3715,0.3739,0.376,0.3745,0.3764,0.377,0.3766,0.379,0.3748,0.376,0.3788,0.3828,0.3767,0.3748,0.374,0.3854,0.3856,0.3857,0.3858,0,0,0.3592,0.3629,0.3622,0.3631,0.3654,0.365,0.3636,0.3643,0.364,0.365,0.364,0.3637,0.3664,0.3669,0.3695,0.3681,0.3628,0.3711,0.3713,0.3696,0.3585,0.3564,0.3554,0.3648,0.3647,0.3646,0.3584,0,0.3525,0.3504,0.3537,0.3509,0.3504,0.355,0.3538,0.3551,0.357,0.3569,0.359,0.3588,0.3623,0.3627,0.3615,0.3637,0.3607,0.3642,0.364,0.3639,0.3635,0.3544,0.3521,0.3462,0.3577,0.3575,0.3574,0,0.3444,0.3451,0.3422,0.345,0.3449,0.3438,0.3447,0.3445,0.3462,0.3477,0.3483,0.3514,0.3503,0.3541,0.3527,0.355,0.3551,0.3562,0.356,0.3562,0.3603,0.3543,0.3444,0.3435,0.3563,0.3564,0.3564,0,0.3364,0.3366,0.335,0.3356,0.3387,0.3378,0.339,0.3409,0.3411,0.342,0.3422,0.3428,0.3432,0.3436,0.3468,0.3492,0.345,0.349,0.3463,0.3462,0.3452,0.3452,0.3351,0.3451,0.3451,0.3452,0.3452,0,0.3286,0.3266,0.3315,0.3304,0.3285,0.3323,0.3302,0.332,0.3336,0.333,0.337,0.3364,0.3406,0.3404,0.3429,0.3414,0.3415,0.3427,0.3434,0.3424,0.3423,0.3426,0.3431,0.3449,0.345,0.345,0.3451,0,0.3193,0.3224,0.3209,0.324,0.3248,0.3232,0.3259,0.3251,0.3273,0.3265,0.3266,0.3301,0.3301,0.3333,0.334,0.3357,0.3332,0.3346,0.3326,0.3331,0.3301,0.3304,0.32,0.3189,0.3295,0.3294,0.3293,0,0.3141,0.3128,0.3158,0.3157,0.3168,0.3166,0.3169,0.3207,0.3208,0.3227,0.3217,0.3221,0.3226,0.3225,0.3251,0.3257,0.3271,0.3235,0.3273,0.3263,0.3272,0.3273,0.3272,0.3227,0.3225,0.3224,0.3223,0,0.3047,0.3063,0.3066,0.3075,0.3077,0.3086,0.3097,0.3094,0.3135,0.3135,0.3137,0.314,0.3148,0.3152,0.3163,0.3176,0.3206,0.3211,0.3205,0.3195,0.3184,0.3191,0.3305,0.3213,0.3214,0.3215,0.3216,0.3216,0.2974,0.2965,0.2985,0.2987,0.2999,0.3009,0.3004,0.3026,0.3028,0.3037,0.3059,0.3057,0.3076,0.3094,0.3104,0.3104,0.3122,0.3113,0.3111,0.3108,0.3103,0.3184,0.3106,0.3106,0.3106,0.3106,0.3107,0,0.2882,0.2898,0.29,0.2914,0.2916,0.2946,0.296,0.2959,0.2957,0.2972,0.2977,0.2979,0.2983,0.3009,0.3017,0.3011,0.3025,0.3012,0.3013,0.3015,0.3086,0.309,0.3,0.3,0.3,0.3,0.3,0.3,0.2835,0.2821,0.284,0.2834,0.285,0.2848,0.2854,0.2863,0.2876,0.2876,0.288,0.2898,0.2918,0.2927,0.2932,0.294,0.2941,0.2922,0.2935,0.3,0.301,0.302,0.3025,0.2922,0.2922,0.2865,0.2865,0.2864]}]]